Fort Yukon, AK

9:20 AM AKDT on June 27, 2017 (GMT -0800)
Fort Yukon

Weather History for PFYU - January, 2013

Change the Weather History Date:

Thursday, January 31, 2013

  Actual Average Record
Temperature  
Mean Temperature -14 °F -  
Max Temperature -2 °F -5 °F 15 °F (2007)
Min Temperature -25 °F -18 °F -56 °F (2008)
Degree Days  
Heating Degree Days 78    
Moisture  
Dew Point -11 °F    
Average Humidity 75    
Maximum Humidity 84    
Minimum Humidity 65    
Precipitation  
Precipitation 0.00 in - - ()
Sea Level Pressure  
Sea Level Pressure 29.91 in    
Wind  
Wind Speed 1 mph (WNW)    
Max Wind Speed 6 mph    
Max Gust Speed -    
Visibility 5 miles    
Events      
Averages and records for this station are not official NWS values.
T = Trace of Precipitation, MM = Missing Value Source: NWS Daily Summary

Daily Weather History Graph

Daily Weather History Graph

Search for Another Location

Airport or City:

Trip Planner

Search our weather history database for the weather conditions in past years. The results will help you decide how hot, cold, wet, or windy it might be!

Date:

Astronomy

Jan. 31, 2013 Rise Set
Actual Time 9:44 AM AKST 4:05 PM AKST
Civil Twilight 8:38 AM AKST 5:11 PM AKST
Nautical Twilight 7:32 AM AKST 6:17 PM AKST
Astronomical Twilight 6:31 AM AKST 7:18 PM AKST
Moon No Moon Rise 9:17 AM AKST (1/31)
Length of Visible Light 8h 33m
Length of Day
6h 21m
Waning Gibbous, 78% of the Moon is Illuminated
Jan 31
Waning Gibbous
Feb 3
Last Quarter
Feb 9
New
Feb 17
First Quarter
Feb 25
Full

Hourly Weather History & Observations

Time (AKST) Temp. Windchill Dew Point Humidity Pressure Visibility Wind Dir Wind Speed Gust Speed Precip Events Conditions
12:16 AM -9.4 °F -18.6 °F -13.0 °F 84% 29.86 in 2.5 mi NE 3.5 mph - N/A   Overcast
12:36 AM -7.6 °F -20.6 °F -16.6 °F 65% 29.85 in 2.5 mi NE 5.8 mph - N/A   Overcast
12:56 AM -7.6 °F -16.5 °F -11.2 °F 84% 29.85 in 2.0 mi NE 3.5 mph - N/A   Overcast
1:16 AM -7.6 °F - -16.6 °F 65% 29.85 in 2.0 mi Calm Calm - N/A   Overcast
1:36 AM -7.6 °F - -13.0 °F 77% 29.85 in 1.8 mi Calm Calm - N/A   Overcast
1:56 AM -7.6 °F - -14.8 °F 71% 29.85 in 2.5 mi Calm Calm - N/A   Overcast
2:16 AM -7.6 °F - -11.2 °F 84% 29.85 in 2.0 mi Calm Calm - N/A   Overcast
2:36 AM -7.6 °F - -14.8 °F 71% 29.85 in 2.0 mi Calm Calm - N/A   Overcast
2:56 AM -7.6 °F - -14.8 °F 71% 29.85 in 1.5 mi Calm Calm - N/A   Overcast
3:16 AM -7.6 °F - -13.0 °F 77% 29.85 in 2.0 mi Calm Calm - N/A   Overcast
3:36 AM -7.6 °F - -13.0 °F 77% 29.85 in 2.0 mi Calm Calm - N/A   Overcast
3:56 AM -7.6 °F - -13.0 °F 77% 29.85 in 1.5 mi Calm Calm - N/A   Overcast
4:16 AM -7.6 °F - -13.0 °F 77% 29.84 in 2.0 mi Calm Calm - N/A   Overcast
4:36 AM -7.6 °F - -11.2 °F 84% 29.84 in 1.5 mi Calm Calm - N/A   Overcast
4:56 AM -5.8 °F - -13.0 °F 71% 29.84 in 1.5 mi Calm Calm - N/A   Overcast
5:16 AM -5.8 °F - -11.2 °F 77% 29.83 in 2.0 mi Calm Calm - N/A   Overcast
5:36 AM -5.8 °F - -11.2 °F 77% 29.83 in 5.0 mi Calm Calm - N/A   Overcast
5:56 AM -5.8 °F - -11.2 °F 77% 29.82 in 2.0 mi Calm Calm - N/A   Overcast
6:16 AM -5.8 °F - -11.2 °F 77% 29.83 in 2.5 mi Calm Calm - N/A   Overcast
6:36 AM -5.8 °F - -11.2 °F 77% 29.83 in 2.0 mi Calm Calm - N/A   Overcast
6:56 AM -5.8 °F - -11.2 °F 77% 29.83 in 8.0 mi Calm Calm - N/A   Mostly Cloudy
7:16 AM -5.8 °F - -11.2 °F 77% 29.84 in 10.0 mi Calm Calm - N/A   Overcast
7:36 AM -5.8 °F - -13.0 °F 71% 29.84 in 3.0 mi Calm Calm - N/A   Mostly Cloudy
7:56 AM -5.8 °F - -11.2 °F 77% 29.84 in 1.8 mi Calm Calm - N/A   Overcast
8:16 AM -5.8 °F - -11.2 °F 77% 29.84 in 3.0 mi Calm Calm - N/A   Overcast
8:36 AM -5.8 °F - -11.2 °F 77% 29.84 in 3.0 mi Calm Calm - N/A   Overcast
8:56 AM -4.0 °F - -9.4 °F 78% 29.85 in 1.8 mi Calm Calm - N/A   Overcast
9:16 AM -5.8 °F - -11.2 °F 77% 29.85 in 1.5 mi Calm Calm - N/A   Overcast
9:36 AM -5.8 °F - -9.4 °F 84% 29.85 in 1.5 mi Calm Calm - N/A   Overcast
9:56 AM -5.8 °F - -11.2 °F 77% 29.86 in 1.5 mi Calm Calm - N/A   Overcast
10:16 AM -5.8 °F - -11.2 °F 77% 29.86 in 1.5 mi Calm Calm - N/A   Overcast
10:36 AM -5.8 °F - -9.4 °F 84% 29.86 in 3.0 mi Calm Calm - N/A   Overcast
10:56 AM -5.8 °F - -11.2 °F 77% 29.86 in 3.0 mi Calm Calm - N/A   Overcast
11:16 AM -4.0 °F - -9.4 °F 78% 29.87 in 3.0 mi Calm Calm - N/A   Overcast
11:36 AM -4.0 °F - -11.2 °F 71% 29.88 in 3.0 mi Calm Calm - N/A   Overcast
11:56 AM -4.0 °F - -11.2 °F 71% 29.88 in 3.0 mi Calm Calm - N/A   Overcast
12:16 PM -4.0 °F - -11.2 °F 71% 29.88 in 7.0 mi Calm Calm - N/A   Mostly Cloudy
12:36 PM -2.2 °F - -9.4 °F 71% 29.89 in 7.0 mi Calm Calm - N/A   Overcast
12:56 PM -2.2 °F - -11.2 °F 66% 29.90 in 7.0 mi Calm Calm - N/A   Overcast
1:16 PM -2.2 °F - -11.2 °F 66% 29.90 in 10.0 mi Calm Calm - N/A   Overcast
1:36 PM -2.2 °F - -11.2 °F 66% 29.90 in 10.0 mi Calm Calm - N/A   Overcast
1:56 PM -2.2 °F - -9.4 °F 71% 29.91 in 10.0 mi Calm Calm - N/A   Overcast
2:16 PM -2.2 °F - -9.4 °F 71% 29.91 in 4.0 mi Calm Calm - N/A   Overcast
2:36 PM -2.2 °F -12.5 °F -9.4 °F 71% 29.92 in 8.0 mi West 4.6 mph - N/A   Overcast
2:56 PM -2.2 °F -10.4 °F -9.4 °F 71% 29.92 in 10.0 mi West 3.5 mph - N/A   Overcast
3:16 PM -2.2 °F -10.4 °F -9.4 °F 71% 29.93 in 4.0 mi West 3.5 mph - N/A   Overcast
3:36 PM -2.2 °F - -9.4 °F 71% 29.93 in 7.0 mi Calm Calm - N/A   Overcast
3:56 PM -2.2 °F - -9.4 °F 71% 29.94 in 9.0 mi Calm Calm - N/A   Overcast
4:16 PM -2.2 °F -10.4 °F -11.2 °F 66% 29.95 in 10.0 mi West 3.5 mph - N/A   Overcast
4:36 PM -2.2 °F - -9.4 °F 71% 29.95 in 10.0 mi Calm Calm - N/A   Overcast
4:56 PM -2.2 °F - -9.4 °F 71% 29.95 in 10.0 mi Calm Calm - N/A   Overcast
5:16 PM -2.2 °F - -9.4 °F 71% 29.96 in 10.0 mi Calm Calm - N/A   Overcast
5:36 PM -4.0 °F - -11.2 °F 71% 29.96 in 10.0 mi Calm Calm - N/A   Overcast
5:56 PM -4.0 °F - -9.4 °F 78% 29.97 in 10.0 mi Calm Calm - N/A   Overcast
6:16 PM -5.8 °F - -11.2 °F 77% 29.97 in 10.0 mi Calm Calm - N/A   Partly Cloudy
6:36 PM -5.8 °F -14.5 °F -11.2 °F 77% 29.99 in 10.0 mi SW 3.5 mph - N/A   Scattered Clouds
6:56 PM -5.8 °F - -11.2 °F 77% 29.99 in 10.0 mi Calm Calm - N/A   Scattered Clouds
7:16 PM -5.8 °F - -13.0 °F 71% 29.99 in 10.0 mi Calm Calm - N/A   Partly Cloudy
7:36 PM -7.6 °F - -11.2 °F 84% 30.00 in 10.0 mi Calm Calm - N/A   Clear
8:16 PM -5.8 °F - -9.4 °F 84% 30.01 in 10.0 mi Calm Calm - N/A   Overcast
8:36 PM -5.8 °F - -13.0 °F 71% 30.01 in 10.0 mi Calm Calm - N/A   Overcast
8:56 PM -5.8 °F - -11.2 °F 77% 30.02 in 5.0 mi Calm Calm - N/A   Overcast
9:16 PM -5.8 °F - -11.2 °F 77% 30.02 in 3.0 mi Calm Calm - N/A   Overcast
9:36 PM -5.8 °F - -9.4 °F 84% 30.03 in 5.0 mi Calm Calm - N/A   Mostly Cloudy
9:56 PM -5.8 °F - -13.0 °F 71% 30.03 in 7.0 mi Calm Calm - N/A   Mostly Cloudy
10:16 PM -5.8 °F - -11.2 °F 77% 30.04 in 5.0 mi Calm Calm - N/A   Mostly Cloudy
10:36 PM -5.8 °F - -9.4 °F 84% 30.04 in 10.0 mi Calm Calm - N/A   Mostly Cloudy
10:56 PM -5.8 °F - -14.8 °F 65% 30.05 in 8.0 mi Calm Calm - N/A   Overcast
11:16 PM -5.8 °F - -11.2 °F 77% 30.05 in 7.0 mi Calm Calm - N/A   Overcast
11:36 PM -5.8 °F - -11.2 °F 77% 30.06 in 10.0 mi Calm Calm - N/A   Overcast
11:56 PM -5.8 °F - -14.8 °F 65% 30.07 in 7.0 mi Calm Calm - N/A   Overcast